IRS P6

Satellite information

Favourite Embed

Satellite Type and Status

PAYLOADIN ORBIT

Key statistics

Satellite IRS P6 at a glance.

Uptime

7997

Days in orbit

Revolutions

≈ 14.4

Per day

Orbit

SSO

Sun Synchronous Orbit

Inclination

98.2

Latest

Satellite identification and parameters

Extended collection of information and parameters for IRS P6.

Object identification

Identified? True

Debris? False

Object name: IRS P6

International designator: 2003-046A

Object number (NORAD): 28051

Object ID (CCSDS): 28051

Country: INDIA (IND)

Current information (Y/N): Y

RCS size: LARGE

Orbital parameters

Period: 100.278 minutes

Inclination: 98.2333 deg

SMA: 7149.836 km

Apoapsis: 818.46 km

Periapsis: 724.943 km

RAAN: 295.752 deg

Eccentricy: 0.00653981

Argument of periapsis: 108.5752 deg

Mean anomaly: 8.5415 deg

Mean motion: 14.36013753 rev/day

Mean motion (dot): 0.00000188 rev/day2

B* drag term: 0.000076766612 1/REarth

Two-line elements (TLE)

Creation date: Sept. 8, 2025, 3:16 a.m.

Reference frame: TEME

Reference center: EARTH

Epoch: Sept. 7, 2025, 11:46 p.m. UTC

TLE line 0: 0 IRS P6

TLE line 1: 1 28051U 03046A 25250.99050993 .00000188 00000-0 76767-4 0 9991

TLE line 2: 2 28051 98.2333 295.7520 0065398 108.5752 8.5415 14.36013753140028

Live tracking on map

Real-time ground track for satellite IRS P6.

In-orbit conjunctions

There are no conjunctions computed for IRS P6, at the moment. Check back to stay up to date, as we update our databases every day.

Go to all conjunctions

Associated space launch

The Resourcesat-1 satellite was launched to ensure systematic and repetitive coverage of the earth’s surface.

IRS P6 was lifted into orbit during the mission ‘PSLV | Resourcesat’, on board a PSLV space rocket.

The launch took place on Oct. 17, 2003, 4:52 a.m. from Satish Dhawan Space Centre First Launch Pad.

For more information about the launch, click the button.

Launch to space PSLV | Resourcesat
PSLV | Resourcesat

Agency: N/A

Status: Launch Successful

Launch date: Oct. 17, 2003, 4:52 a.m. UTC

Rocket: PSLV

Launch pad: Satish Dhawan Space Centre First Launch Pad

Location: Satish Dhawan Space Centre, India

...

Latest news about this satellite

There are no fresh news available about this satellite. Check back as we update our databases every day.


Newsletter sign-up

Weekly statistics, charts and insights to help you stay on top of the space industry.